Showing default

GAOFEN 11 2, 46396

Orbit data source: Space-Track

GAOFEN 11 2, 46396 is a payload satellite owned by PLA SSF (CN) in SSO that was launched on Mon, 07 Sep 2020 UTC via a CHANG ZHENG 4B launch vehicle from the Taiyaun Space Center, China (TSC). Payload-class satellites include a variety of spacecraft equipped with specific instruments for various scientific and technological missions. These include communications satellites like Starlink; space stations such as the ISS; scientific satellites like the Hubble; Earth observation satellites from companies like Planet Labs, Umbra, and HawkEye 360; GPS; miniature CubeSats for education and research; and military/defense satellites.

Loading next visibility...
Identifier
46396, 2020-064A
Orbit
SSO
Country
Flag of CNCN / PRC
Related business
Manufacturer
CAST
Mission
Operational Defense Imaging
Bus & Motor
JB-16, Unknown motor
Mass
~3,000 kg wet, ~3,000 kg dry
Launch date (UTC)
2020-09-07 (6 years ago)
Launch vehicle
CHANG ZHENG 4B
Launch site
Taiyaun Space Center, China (TSC)
Object type
Payload
Rocket body
Debris
Shape & HBR
Box + 2 Pan, Unknown HBR
Radar Cross Section
9.231 m², Large (>1 m²)

Expand to show TLE details & history
Last TLE update: 7 hours ago

TLE from 7 hours ago
0 GAOFEN 11 2
1 46396U 20064A   26095.29200447  .00010703  00000-0  44956-3 0  9992
2 46396  97.5030 221.2665 0019533 198.7560 161.2960 15.23452370310433
Epoch: 2026-04-05T07:00Z
TLE epoch observation values (Epoch: 2026-04-05T07:00:29.186Z)
Latitude
0.00007°
Longitude
-77.45464°
Altitude
511.251 km
Speed
7.601 km/s
True Right ascension
14h 45m 03s
True Declination
0° 00' 00"
Sunlit
Object was in full shadow at epoch
Visualization orbit readout
Latitude
Unknown
Longitude
Unknown
Altitude
Unknown
Speed
Unknown
Apparent Right ascension
Unknown
Apparent Declination
Unknown
Sunlit
N/A
Visualization observer readout
Local Sidereal Time
20:24:07
Azimuth
Unknown
Elevation
Unknown
Doppler factor
Unknown
Orbital elements
Apogee altitude
505.822 km
Perigee altitude
478.982 km
Semi-major axis
6,870.539 km
Eccentricity
0.00195
Inclination
97.503°
RAAN
221.2665°
Arg. of periapsis
198.756°
True anomaly
161.36761°
Mean anomaly
161.296°
Eccentric anomaly
161.33182°
Mean motion
3.81116 °/min
Orbital period
94.46 mins
BSTAR
0.00044956
Loading maneuver chart data...
Computing Atmospheric mass density...
Loading historical data...
Loading historical data...
Loading historical data...
Loading historical data...
Loading historical data...
Loading historical data...
Loading historical data...
Other satellites on launch #64 in the year 2020 (2020-09-07 UTC)

Documentation

Showing up to 5 results
|